Other Public Products
Issued by NWS Charleston, SC

Current Version | Previous Version | Text Only | Print | Product List | Glossary On
Versions: 1 2 3 4 5 6 7 8 9 10 11 12 13 14 15 16 17 18 19 20 21 22 23 24 25 26 27 28 29 30 31 32 33 34 35 36 37 38 39 40 41 42 43 44 45 46 47 48 49 50
897
FPUS82 KCHS 291127
OPUCHS

TEST...KCHS/KSAV Gateway Observations...TEST
National Weather Service Charleston SC
700 AM EDT WED MAR 29 2017

NOTE: "fair" indicates few or no clouds below 12,000 feet with no
significant weather and/or obstructions to visibility.

SCZ050-WAZ558-NCZ071-TXZ119-213-PAZ071-DCZ001-FLZ074-172-MI076-
NYZ176-178-MAZ016-IL014-TNZ027-NJZ106-GAZ044-MD014-291200-

...Gateway Observations for Charleston International...

CITY           SKY/WX    TMP DP  RH WIND       PRES   REMARKS
Chas Airport   CLEAR     62  57  83 N8        29.97R
Seattle        LGT RAIN  46  45  96 E6        29.99F
Charlotte      CLEAR     54  48  80 N6        30.03R
Dallas DFW     CLOUDY    62  60  93 CALM      29.70R
Dallas Love    CLOUDY    62  59  90 E15       29.71F
Philladelphia  MOCLDY    47  39  74 N13       30.04R
Wash National  CLOUDY    57  48  72 N12       30.06R
Baltimore      MOCLDY    52  43  71 NE6       30.06R
Miami          PTCLDY    73  64  73 CALM      30.01R
Detroit        CLEAR     34  30  85 N5        30.26R WCI  30
Newark         CLOUDY    44  40  85 N16G28    30.03R
Laguardia      MOCLDY    46  38  73 N12       30.02R
J F K          MOCLDY    46  40  79 N16       30.02R
Boston Logan   CLOUDY    38  36  92 N12       30.00R WCI  30
Ft. Lauderdale MOCLDY    72  65  78 CALM      30.00R
Chicago O`Hare FOG       35  33  92 NE8       30.23R VSB 3/4 WCI  29
Chicago Midway CLOUDY    37  36  96 NE9       30.23R FOG     WCI  30
Houston Bush   MOCLDY    73  66  78 S5        29.81F
Houston Hobby  MOCLDY    72  67  84 SE3       29.79R
Nashville      CLEAR     50  49  96 CALM      30.04S
Atlanta        PTCLDY    61  54  77 N3        30.02R

$$

GAZ044-118-TXZ119-213-NCZ071-DCZ001-MDZ014-506-PAZ021-071-NJZ106-
NYZ176-178-MAZ106-OHZ011-021-055-MIZ076-KYZ091-ILZ014-INZ047-
MNZ060-ONZ431-291200-

...Gateway Observations for Savannah International...

CITY           SKY/WX    TMP DP  RH WIND       PRES   REMARKS
Savannah Arpt  PTCLDY    62  58  86 W3        29.98R
Atlanta        PTCLDY    61  54  77 N3        30.02R
Charlotte      CLEAR     54  48  80 N6        30.03R
Dallas DFW     CLOUDY    62  60  93 CALM      29.70R
Houston Bush   MOCLDY    73  66  78 S5        29.81F
Wash National  CLOUDY    57  48  72 N12       30.06R
Wash Dulles    MOCLDY    55  49  80 N10       30.06R
Baltimore      MOCLDY    52  43  71 NE6       30.06R
Philadelphia   MOCLDY    47  39  74 N13       30.04R
Newark         CLOUDY    44  40  85 N16G28    30.03R
Laguardia      MOCLDY    46  38  73 N12       30.02R
J F K          MOCLDY    46  40  79 N16       30.02R
Boston         CLOUDY    38  36  92 N12       30.00R WCI  30
Pittsburg      CLOUDY    45  41  86 N6        30.16R
Akron          CLOUDY    40  36  86 N7        30.18S FOG     WCI  35
Cleveland      CLOUDY    39  34  82 NE6       30.23S WCI  35
Cincinnati     CLOUDY    46  39  76 NE12      30.16R
Columbus       CLOUDY    41  39  93 N5        30.19R
Detroit        CLEAR     34  30  85 N5        30.26R WCI  30
Chicago O`Hare FOG       35  33  92 NE8       30.23R VSB 3/4 WCI  29
Minneapolis    CLOUDY    45  32  60 E8        30.20R
Indianapolis   DRIZZLE   48  43  82 E15       30.15R
Toronto Canada PTCLDY    34  28  80 NW8       30.22R WCI  27

$$




USA.gov is the U.S. government's official web portal to all federal, state and local government web resources and services.